Helicity
-9 9 21 20 14 5 7 10 2 9 12 6 1 3 -16 -5 2 -2 -42 2 12 -36 41 69 18 137 82 131 174 208 359 383 226 250 233 225 178 167 217 174 171 244 300 289 310 308 238 201 276 219 165 202 197 305
-8 7 12 9 5 5 6 10 11 11 16 5 -6 -3 -16 4 16 11 -37 12 32 -4 39 19 49 56 49 86 116 180 209 362 489 324 269 210 222 240 221 233 229 214 196 219 216 212 271 237 235 216 132 162 286 380
-4 5 8 6 13 5 3 7 5 9 14 4 -3 -11 -8 13 15 9 -12 -39 -8 -13 91 91 55 60 36 47 112 112 134 182 264 353 459 397 328 350 284 276 292 271 304 285 281 375 354 299 260 225 300 367 385 378
1 4 3 14 12 11 12 9 12 4 11 1 -1 -5 -1 1 21 12 -18 25 22 9 84 53 42 47 69 98 76 83 120 217 254 269 270 306 379 418 378 302 329 365 373 369 386 327 314 333 288 384 456 509 564 510
-6 1 13 10 7 6 -1 -2 7 7 7 1 -4 -9 -4 4 10 -5 -9 82 40 63 76 70 63 71 96 107 83 46 73 79 139 160 223 254 262 218 271 291 279 289 208 187 147 89 232 350 433 493 436 340 292 268
13 17 18 9 5 5 5 15 17 10 4 4 7 1 -0 4 10 -36 6 -10 -2 45 23 89 81 101 124 117 162 171 160 154 155 170 214 217 240 160 132 197 154 180 179 168 145 261 301 316 306 279 315 266 195 164
13 17 14 11 7 12 15 16 12 7 9 9 5 -4 1 4 -21 -5 14 -24 -39 48 68 35 72 114 162 163 203 232 213 191 199 206 191 185 225 187 169 138 131 181 163 178 216 289 337 247 280 272 209 159 140 110
9 9 7 8 8 14 13 7 13 8 2 -0 -0 7 -1 -7 -5 3 -15 -10 3 60 69 74 102 137 171 257 247 234 234 224 228 191 210 227 228 187 157 200 160 162 201 178 150 180 116 167 193 181 143 112 114 89
-4 1 1 3 6 9 4 1 4 7 3 3 4 -0 -1 -1 5 3 20 -0 44 45 75 108 150 138 140 206 246 256 216 256 206 263 268 207 242 196 227 235 173 152 116 110 150 214 177 174 145 113 88 79 71 63
-4 -2 1 -2 10 7 3 1 7 4 -2 2 21 -5 19 -15 10 7 6 23 56 37 51 120 160 148 146 182 211 214 234 218 253 260 227 226 257 225 222 172 108 118 104 89 169 179 149 114 72 63 68 56 52 49
2 1 2 3 4 4 5 2 6 -1 38 -5 -33 -1 11 18 9 13 33 47 75 68 73 121 152 179 205 201 194 173 169 187 219 228 209 232 244 195 134 99 89 78 66 87 84 59 59 52 49 53 51 51 39 25
12 11 3 6 6 2 2 -16 21 42 35 -17 10 -1 37 9 17 31 48 43 81 106 129 149 213 237 224 164 146 168 164 135 176 141 162 194 116 94 74 53 44 45 81 105 82 74 62 53 38 32 25 26 31 40
11 9 8 2 2 3 -1 -10 2 28 -14 -28 -15 13 20 29 43 71 95 75 101 137 162 191 214 232 176 161 138 139 126 129 135 156 154 80 38 39 45 61 81 68 73 64 55 38 29 26 26 24 27 35 46 54
32 25 29 32 17 2 4 7 -11 38 -28 12 23 69 33 66 81 79 89 95 163 183 169 199 152 153 159 138 120 120 123 100 132 153 146 43 36 54 56 59 69 64 47 32 27 27 33 37 38 49 58 61 59 54
19 19 -2 12 21 23 16 20 18 -7 -20 21 7 67 45 49 39 91 137 180 233 247 236 219 194 184 186 141 107 98 132 136 115 97 42 25 63 84 80 46 37 26 17 20 18 32 43 48 50 52 58 62 68 77
29 35 37 48 41 31 26 51 23 21 54 43 15 15 37 70 116 158 208 259 195 171 109 127 122 147 124 94 122 125 102 127 79 43 44 44 74 66 33 20 13 17 23 19 18 32 49 61 61 49 51 73 94 95
39 52 66 37 24 24 1 39 40 -3 5 15 29 55 38 44 125 152 243 256 151 75 89 99 141 117 99 105 127 87 81 69 66 105 103 69 42 9 3 11 16 17 19 26 35 57 52 54 52 68 83 92 93 91
62 94 24 20 -3 33 41 -13 10 -17 11 39 41 94 81 72 111 150 216 151 121 123 126 110 89 118 113 132 125 76 94 101 94 81 61 30 17 14 9 3 11 19 28 40 43 35 43 58 76 86 86 79 81 78
74 56 22 20 56 46 1 -16 -24 -29 -14 28 65 71 68 90 73 127 164 116 71 65 70 106 92 211 189 150 104 75 45 27 21 16 13 13 9 10 12 22 27 29 34 36 45 49 57 70 74 75 76 69 54 48
12 30 17 9 41 58 15 -7 -3 -29 -17 4 9 48 41 85 125 159 179 228 172 166 193 208 195 156 123 123 85 63 53 11 -15 -7 -0 14 16 23 28 21 20 26 26 38 56 71 66 86 86 75 63 56 48 46
27 26 10 15 29 18 28 15 -3 -15 -5 -4 26 18 25 80 168 245 223 218 253 308 222 186 98 77 51 52 55 34 46 34 18 -0 1 13 16 15 18 17 19 13 30 52 58 55 81 67 62 56 47 46 42 39
48 16 29 11 26 3 11 -3 1 7 -19 -15 19 26 26 56 100 138 175 230 199 184 140 129 64 35 49 66 59 61 41 24 25 28 46 26 12 7 9 17 31 48 51 47 48 58 51 50 44 33 18 5 -0 -8
21 21 18 3 31 9 -18 -12 -14 8 -18 -9 9 29 39 55 49 38 48 101 109 116 93 68 44 35 25 39 58 79 80 45 25 21 27 19 14 19 27 33 38 43 58 61 50 38 38 14 2 -9 -18 -9 5 19
8 5 16 32 22 14 -11 4 -15 -7 -2 -5 20 41 65 70 85 53 79 77 72 79 100 116 89 42 44 65 66 66 79 48 23 8 7 14 30 37 34 7 13 31 52 51 39 34 -3 1 2 -1 5 14 23 27
14 -8 19 23 36 16 -4 2 10 2 3 -11 15 40 57 53 50 60 70 81 69 69 76 85 70 61 47 43 53 51 37 27 18 -2 -16 5 10 -2 -27 -26 -22 -6 19 -29 -5 12 23 28 29 27 28 29 48 67
25 11 19 39 26 25 31 13 -8 7 7 14 28 46 50 30 21 37 45 62 46 48 60 65 65 54 40 34 37 54 61 30 -2 -1 -22 -8 -35 -57 -46 -26 -21 -31 -57 5 40 37 33 34 40 50 55 56 52 25
38 11 5 12 22 23 19 10 -22 -7 22 32 38 41 39 20 18 17 21 31 43 49 50 35 21 13 6 8 -0 10 19 2 -45 -72 -57 -35 -15 -65 -72 -29 6 30 72 56 37 45 49 50 52 56 60 55 45 36
70 29 11 -3 -0 -1 19 15 17 -6 10 24 17 20 5 23 38 35 40 49 42 43 31 12 19 17 -5 -32 -38 -10 1 25 -23 -37 12 -29 -36 -62 -31 -17 14 61 65 53 37 29 35 45 63 71 57 52 44 25
55 43 35 -5 -13 -3 10 9 21 -11 22 20 3 -0 -0 55 58 47 43 34 25 6 10 23 29 41 2 -25 -29 -30 -36 -32 -32 -37 -19 -18 6 -4 38 65 83 56 40 53 72 56 48 40 13 16 22 25 23 12
60 43 50 38 8 -10 2 1 18 -5 8 13 16 18 47 47 43 14 12 10 5 4 20 25 24 -2 -7 -4 -3 -12 -43 -66 -66 -66 -25 10 44 127 139 122 69 61 65 76 81 77 63 29 26 14 19 13 8 6
67 63 59 42 27 -17 -19 -18 -2 11 12 24 36 13 16 18 7 8 1 -19 -8 15 21 24 14 2 -3 -3 -8 -3 3 12 -19 -2 8 55 91 108 112 48 21 56 73 88 77 66 60 44 32 33 28 24 27 7
63 51 47 53 35 -3 -43 -39 -27 10 24 15 21 13 19 11 10 1 -10 -3 11 8 19 21 40 33 10 15 21 26 25 25 26 27 48 51 49 40 10 -12 6 19 49 67 67 60 56 42 35 31 30 28 22 8
45 30 24 29 21 12 -12 -40 -48 -22 24 13 22 22 15 5 7 12 1 -4 6 12 25 51 61 25 13 12 11 3 -4 5 17 15 15 17 19 20 -21 -17 5 7 10 38 49 53 52 57 43 41 38 32 21 4
Wind_Speed
73 69 69 73 72 69 71 82 88 86 84 80 79 78 78 78 77 74 72 67 61 71 83 79 65 60 51 46 64 49 55 59 58 65 66 65 64 62 62 57 60 63 62 68 66 77 87 41 37 51 45 37 29 26
70 69 71 71 64 51 52 87 81 84 83 79 78 78 77 77 77 75 73 68 61 68 73 56 49 47 44 44 50 42 48 54 53 61 62 55 62 59 60 70 53 62 54 57 55 59 44 38 42 37 36 28 26 16
71 73 73 69 66 54 47 46 83 84 80 74 77 76 76 76 76 72 67 58 52 61 62 60 57 52 45 43 42 46 51 37 39 41 50 58 70 59 69 64 54 52 46 52 48 50 42 41 37 34 26 16 9 7
73 76 77 75 70 71 81 84 77 77 65 73 76 76 75 76 75 74 64 63 52 54 56 51 43 51 50 49 47 45 36 32 35 36 44 48 56 54 66 59 65 58 51 54 58 50 41 41 33 17 8 7 8 12
73 76 79 80 80 83 86 85 74 73 68 75 77 76 76 77 77 74 72 67 59 47 48 47 44 41 45 41 42 37 36 38 35 39 43 46 37 39 42 45 52 49 54 63 71 42 42 24 13 6 7 8 9 11
78 80 81 82 83 84 86 76 72 68 73 78 80 77 77 76 73 65 46 32 33 37 38 43 38 37 32 27 28 29 29 31 32 28 32 30 29 34 40 47 41 40 35 38 32 24 15 8 3 7 4 7 12 17
78 78 79 82 80 79 74 73 73 75 77 78 77 77 75 71 62 49 42 43 42 37 34 35 35 33 30 29 30 29 26 28 29 28 31 31 30 27 37 42 27 24 23 13 10 5 3 3 5 2 6 11 16 22
74 74 78 80 75 74 73 72 76 76 76 77 76 74 71 59 45 42 40 40 36 34 31 34 34 32 29 28 31 32 31 29 29 27 27 27 29 29 33 24 19 15 13 9 11 12 6 6 7 7 10 15 23 30
70 74 76 78 76 76 70 68 74 77 73 75 75 65 44 35 36 38 40 33 29 30 31 34 38 38 30 28 25 26 27 31 30 29 28 27 30 32 23 19 11 14 16 8 10 9 9 8 7 10 17 25 31 36
74 75 77 80 69 70 67 70 73 71 73 68 57 41 34 38 42 38 33 31 29 30 29 27 25 32 29 28 28 28 26 28 31 27 28 27 26 23 23 19 14 12 10 13 13 9 8 8 11 19 26 32 36 40
57 67 63 74 64 64 66 64 65 67 53 56 43 35 39 37 32 29 28 27 29 28 28 28 23 18 22 20 21 25 24 26 30 29 27 28 25 21 19 12 13 13 13 15 17 16 16 15 19 26 33 37 39 41
14 18 72 65 61 32 34 24 62 49 37 36 35 34 32 27 27 26 25 26 26 27 27 26 23 20 17 19 15 19 19 24 27 21 22 24 17 16 10 11 12 14 17 20 21 21 22 25 28 33 37 40 42 47
37 51 66 62 10 25 13 19 15 34 34 26 25 27 26 26 23 23 25 26 25 27 26 24 20 21 20 19 16 21 22 20 20 24 25 18 13 9 10 14 17 18 19 21 23 26 29 33 35 38 43 44 48 52
59 62 63 63 58 48 39 27 64 49 27 23 22 21 21 24 25 26 26 25 22 14 14 18 17 16 18 18 22 20 18 21 25 27 22 7 9 10 11 15 18 20 23 26 29 31 34 38 41 42 45 47 50 56
55 59 50 40 40 38 39 14 44 32 19 19 19 18 20 24 20 18 18 15 17 21 21 19 13 15 18 17 21 17 23 24 23 17 4 11 15 17 18 20 22 25 28 31 34 37 40 44 47 50 48 50 52 55
39 32 15 43 42 32 37 33 45 6 16 15 16 16 20 16 15 13 14 16 20 22 21 18 16 15 18 19 18 22 21 20 10 8 12 17 19 21 22 25 27 30 32 35 38 42 47 50 52 54 55 55 57 58
50 46 19 46 48 8 52 46 47 24 17 18 18 17 16 13 14 16 17 20 25 21 18 17 15 15 15 16 17 20 12 11 17 18 17 18 20 23 26 28 31 34 37 41 46 49 51 54 55 58 61 62 57 56
41 21 33 50 54 46 46 40 47 21 18 20 19 18 15 13 11 13 19 20 15 14 13 11 11 13 13 11 10 12 16 18 20 21 22 24 26 29 30 31 35 40 45 49 52 55 58 62 64 64 61 60 60 59
22 23 26 18 48 46 45 33 21 19 19 19 19 20 18 17 16 17 19 18 15 12 11 14 12 10 10 10 15 16 17 19 20 23 26 29 30 32 35 38 42 47 51 54 58 61 62 62 62 59 58 59 59 55
42 37 37 49 47 44 41 26 21 22 20 22 22 21 18 19 20 18 20 17 14 10 10 8 10 12 14 16 17 19 20 21 22 24 28 31 33 36 40 45 49 52 55 57 60 61 61 62 58 59 58 55 56 55
46 50 46 47 45 51 45 18 25 26 25 24 26 22 20 21 21 19 16 17 15 10 11 14 16 19 22 23 26 28 29 29 28 28 30 32 38 41 45 49 52 54 57 59 63 64 64 62 59 55 53 55 53 49
39 50 43 47 45 40 43 14 20 21 24 25 24 24 22 21 21 21 21 18 15 18 19 20 20 22 26 28 30 31 30 29 30 32 36 37 42 48 52 55 57 60 62 64 63 63 58 55 53 53 54 53 48 41
37 40 40 49 42 41 36 23 22 22 28 28 28 26 25 23 24 26 19 19 20 25 25 23 23 25 27 28 30 33 34 34 34 37 40 43 45 49 54 58 59 63 65 61 55 54 55 57 53 43 35 30 27 25
39 39 39 40 47 39 37 35 32 30 34 34 32 26 24 24 24 18 17 19 24 25 24 24 24 24 26 29 31 34 38 38 38 39 44 49 52 55 58 61 62 60 53 44 50 44 23 29 30 27 25 24 23 24
38 37 37 38 36 37 40 35 33 33 38 35 23 21 24 25 20 18 20 23 24 23 23 24 25 26 28 31 35 39 42 44 46 47 47 52 54 56 56 57 57 57 55 19 21 22 22 22 23 24 24 24 24 24
43 38 38 36 35 39 38 39 30 29 26 21 20 25 23 19 19 20 21 24 25 27 28 28 30 31 32 34 37 41 46 49 49 48 47 52 52 52 52 50 45 44 38 24 22 22 22 22 23 23 24 25 25 25
42 38 34 35 33 35 38 41 34 27 23 22 23 24 25 23 23 22 20 20 23 26 29 30 30 32 33 36 39 43 46 47 45 43 47 50 50 48 42 41 40 33 29 25 24 24 25 26 26 26 27 28 29 29
43 38 35 30 34 35 34 35 36 19 26 27 27 25 27 28 31 29 25 23 23 24 25 26 27 28 29 31 33 35 37 42 39 45 31 14 29 32 37 37 32 31 27 25 28 28 26 26 27 29 31 31 32 33
39 37 34 33 33 35 36 35 35 24 27 29 27 25 24 29 35 32 27 25 25 23 24 24 24 25 28 29 32 28 34 41 45 43 40 38 37 35 38 34 31 28 30 29 30 31 30 28 29 31 32 33 35 36
37 36 35 35 33 32 33 34 37 22 21 21 22 22 22 24 23 24 26 25 25 25 25 26 26 27 26 26 27 29 27 36 45 44 36 32 33 34 35 33 33 35 31 30 30 30 30 29 30 31 31 31 33 36
32 31 32 35 35 32 32 34 36 22 20 19 19 22 24 30 29 24 23 25 25 25 25 26 25 24 24 26 27 26 23 11 30 33 27 26 30 33 33 34 37 34 32 31 31 30 30 30 31 31 32 32 32 35
32 30 29 31 33 33 33 33 34 32 27 27 27 28 30 29 28 28 25 25 24 24 24 25 26 26 26 21 17 16 14 23 29 30 31 33 36 39 40 40 37 34 33 33 32 31 30 31 31 31 32 34 35 37
29 29 31 32 33 32 32 34 36 38 32 33 32 32 31 31 30 29 29 25 24 24 25 26 27 25 23 20 17 13 14 25 24 29 34 39 44 46 48 43 38 36 35 35 34 33 32 33 33 33 33 33 34 37
Wind_Direction
340 341 341 341 341 340 337 327 311 313 314 315 312 309 304 308 306 311 294 287 284 272 268 263 261 262 259 256 243 251 247 247 246 245 246 247 252 251 254 255 256 255 255 261 266 268 271 284 283 281 294 304 301 301
342 342 342 343 345 345 344 319 323 317 313 313 307 304 299 305 310 309 293 290 283 273 269 277 274 269 270 268 253 253 256 246 251 247 252 256 255 254 254 254 263 260 266 264 270 275 287 286 292 299 303 299 302 304
341 340 341 343 346 349 346 337 322 313 316 317 304 301 300 305 309 313 296 293 291 276 271 259 257 261 266 265 264 254 256 267 260 261 258 259 255 258 256 260 262 267 272 273 272 283 286 290 298 303 306 310 324 343
339 337 337 339 343 343 335 328 331 325 332 315 301 300 301 301 311 307 296 286 283 278 266 260 265 260 267 263 264 264 271 275 269 271 264 264 261 268 262 269 269 274 272 274 280 284 289 295 296 304 323 354 360 351
338 335 334 333 334 333 328 325 332 329 330 314 304 299 301 301 303 302 283 269 270 268 265 265 265 277 269 272 267 266 265 263 271 267 267 267 276 274 272 272 271 277 274 273 277 276 286 279 287 316 310 320 339 347
336 334 332 331 331 330 329 333 335 334 326 316 306 302 303 300 305 304 285 275 275 262 264 261 268 269 277 275 265 266 266 267 270 278 274 282 285 280 279 276 289 291 292 289 287 288 287 259 283 310 343 351 348 341
335 334 333 332 334 333 338 336 334 329 323 318 314 307 299 294 298 290 271 272 270 251 260 260 263 267 272 265 263 265 277 274 272 276 279 279 285 294 285 283 301 304 312 330 352 55 324 258 274 352 18 351 347 341
336 336 334 334 339 338 338 337 333 331 323 316 310 299 293 294 290 271 269 280 259 251 264 256 261 256 271 260 257 264 259 271 284 279 282 281 286 294 294 297 301 321 337 347 341 342 67 78 64 27 3 347 334 330
342 339 337 334 337 336 341 342 337 323 327 318 308 307 310 301 278 261 270 276 267 258 262 260 244 246 262 258 263 267 274 261 278 275 279 285 290 289 291 298 312 315 313 340 354 54 73 67 37 358 342 335 330 329
341 338 327 323 345 345 346 341 324 321 321 331 329 311 296 284 269 263 267 265 262 264 269 265 266 251 254 256 263 265 277 272 264 285 293 293 296 305 300 306 319 345 37 68 64 58 56 21 358 340 335 334 332 331
339 311 303 325 355 357 350 318 320 325 3 334 301 278 268 269 256 261 263 263 263 259 261 250 250 244 273 254 260 281 271 280 270 282 290 287 285 305 313 338 6 31 26 33 49 46 33 19 354 341 335 333 335 335
320 304 331 354 4 3 291 287 352 17 352 274 257 257 255 262 259 265 269 270 269 259 255 237 233 237 248 268 289 290 286 289 272 298 299 283 296 319 354 37 36 25 43 42 39 29 11 357 349 342 337 334 336 335
22 13 350 5 333 287 279 288 28 34 284 258 268 272 267 267 279 275 276 268 265 257 240 231 232 244 258 271 287 284 294 291 284 291 290 288 309 355 47 46 27 28 30 23 10 3 355 347 344 340 335 337 336 334
9 2 359 347 341 321 305 297 356 25 280 277 285 290 280 267 278 274 274 261 247 242 240 249 260 270 280 288 288 291 287 295 285 279 275 349 23 40 37 17 31 19 12 7 2 358 351 345 342 342 340 339 338 334
28 9 340 323 317 313 308 295 43 356 271 289 286 287 289 273 270 267 253 248 260 252 254 264 287 296 308 308 306 301 296 294 298 280 359 51 48 48 42 27 15 6 2 359 357 354 350 345 340 337 340 340 338 336
64 70 61 318 315 307 308 53 57 172 274 300 311 291 293 289 296 303 305 278 273 269 267 269 276 293 304 305 309 304 300 297 319 16 57 56 46 34 23 11 5 2 360 357 353 349 345 342 339 336 336 337 336 335
45 48 312 316 317 348 336 59 65 329 300 299 291 296 308 267 259 292 285 280 264 258 260 271 288 299 314 320 320 327 340 41 53 52 41 31 25 17 14 11 5 1 356 350 346 343 341 339 337 335 332 332 335 335
49 47 313 319 324 36 52 346 51 316 310 306 306 291 280 287 280 282 291 301 280 269 273 290 283 308 319 331 14 34 42 40 39 40 32 23 19 17 13 7 359 351 346 343 340 337 335 333 331 331 333 333 331 331
43 49 310 317 45 40 36 334 303 312 312 288 292 302 283 274 294 294 301 300 290 296 291 291 329 1 30 21 41 32 28 27 33 27 22 19 14 6 357 350 345 340 338 338 337 336 336 336 335 335 333 332 330 333
33 44 305 351 49 56 59 320 277 310 305 297 292 301 300 301 295 305 332 331 323 312 354 355 3 6 18 6 355 360 356 3 19 14 12 3 355 344 339 337 337 337 338 340 342 340 339 338 338 335 334 334 331 329
22 20 21 35 41 36 58 209 299 300 280 301 296 299 294 307 332 329 327 321 6 334 352 351 5 8 7 4 358 4 6 4 2 0 356 347 334 336 336 339 343 345 344 345 341 339 339 339 340 341 339 334 331 333
29 13 28 28 34 20 28 235 200 234 281 282 291 301 300 302 312 319 310 343 334 331 320 318 342 353 1 357 352 350 344 350 351 349 342 341 337 336 337 339 342 343 343 341 342 344 348 348 348 345 337 325 305 274
38 37 40 15 41 3 358 269 259 270 311 305 302 293 293 292 299 306 306 315 314 314 319 331 345 353 358 351 345 343 335 334 339 341 341 342 344 343 341 341 344 339 338 347 354 354 351 334 318 292 271 260 247 236
55 63 62 58 37 46 339 335 319 308 341 328 325 290 277 274 279 303 294 309 321 320 329 322 317 321 326 333 333 331 329 330 335 342 341 340 343 344 340 328 331 341 355 10 4 14 266 261 262 254 244 234 226 220
68 69 73 65 70 68 49 339 318 346 19 341 309 261 255 261 274 287 283 282 289 300 298 301 316 326 333 331 333 333 332 331 332 336 341 345 345 333 317 317 316 326 346 294 263 261 255 244 240 236 231 225 219 219
63 70 70 71 78 75 80 73 322 310 295 263 227 210 228 254 274 277 279 283 292 298 301 305 313 319 325 325 322 324 323 326 330 339 347 341 328 318 311 306 299 298 292 268 256 252 246 241 237 234 229 226 227 222
62 67 76 77 85 83 78 53 349 316 267 252 233 231 234 246 246 241 256 289 284 285 286 289 302 312 321 322 325 327 323 322 319 313 337 348 359 325 299 297 293 280 275 267 255 247 242 241 238 234 232 231 226 220
60 66 70 83 80 79 82 79 77 331 254 242 233 246 235 232 217 219 227 234 259 260 265 263 269 270 272 286 293 301 310 318 311 344 51 237 285 287 297 295 284 280 275 266 262 253 240 232 229 233 236 232 229 226
57 59 70 74 79 77 78 84 87 273 254 241 239 236 227 203 188 199 218 253 256 256 269 259 255 269 282 279 296 280 309 323 330 324 316 306 303 298 302 295 288 284 286 278 273 267 255 242 242 244 241 236 231 225
48 55 64 69 74 80 85 91 92 265 272 257 240 220 214 219 234 251 262 263 271 275 266 257 257 275 267 267 276 284 283 319 333 324 303 295 292 289 292 292 291 296 289 282 276 272 266 261 260 260 255 246 238 225
48 55 63 68 72 85 96 99 107 255 260 250 243 233 232 209 203 229 265 257 264 272 279 284 263 254 264 276 276 273 266 150 292 296 284 278 283 287 290 292 297 292 289 286 281 276 272 272 268 264 259 252 246 235
39 55 64 70 76 85 98 111 119 198 235 233 231 229 223 228 237 235 255 272 269 279 275 277 275 262 251 235 213 180 203 263 283 288 290 292 295 298 301 301 298 293 292 291 286 280 278 278 275 273 266 257 247 240
40 55 62 73 81 90 107 124 146 178 230 228 231 230 231 232 233 237 217 230 245 249 271 273 264 240 228 231 213 189 240 275 277 287 294 299 305 308 311 306 298 296 295 294 293 289 285 285 284 282 278 269 258 247